Regional Weather Roundup
Issued by NWS

Home | Current Version | Previous Version | Text Only | Print | Product List | Glossary On
Versions: 1 2 3 4 5 6 7 8 9 10 11 12 13 14 15 16 17 18 19 20 21 22 23 24 25 26 27
000
ASUS45 KSLC 262010
RWRUT

UTAH REGIONAL WEATHER ROUNDUP
NATIONAL WEATHER SERVICE SALT LAKE CITY UT
200 PM MDT WED APR 26 2017

UTZ001>011-023>025-262100-

NORTHERN UTAH

CITY           SKY/WX    TMP DP  RH WIND       PRES   REMARKS
BRIGHAM CITY   CLOUDY    54  33  45 S13       29.82F
HILL AFB       PTSUNNY   53  33  46 SW12      29.82F
LOGAN          CLOUDY    53  35  50 S12       29.80F
OGDEN          MOSUNNY   54  33  45 SW10G20   29.82F
SALT LAKE CITY PTSUNNY   56  34  43 SE5       29.82F
TOOELE VALLEY  PTSUNNY   59  36  41 SW6       29.82F
WENDOVER       CLOUDY    55  31  39 E8        29.79F
HEBER CITY     MOSUNNY   50  28  43 SW16      29.83F
WEST JORDAN    MOSUNNY   57  43  58 SE8       29.83F

$$

UTZ011>015-024>027-262100-

CENTRAL/NORTHEAST UTAH

CITY           SKY/WX    TMP DP  RH WIND       PRES   REMARKS
PROVO AIRPORT  MOSUNNY   56  34  43 S7        29.85F
MOAB/CANYONLAN MOSUNNY   59  21  23 MISG      29.83F
DELTA          MOSUNNY   57  27  30 SE9       29.83F
PRICE          CLOUDY    52  24  33 S12       29.84F
ROOSEVELT      SUNNY     59  27  29 W18G26    29.80F
VERNAL         CLOUDY    53  26  35 VRB3      29.79F

$$

UTZ013>016-019>022-027-262100-

SOUTHERN UTAH

CITY           SKY/WX    TMP DP  RH WIND       PRES   REMARKS
BRYCE CANYON   CLOUDY    51  21  30 W14G22    29.93F
CEDAR CITY     PTSUNNY   59  28  30 W8        29.87F
MILFORD        SUNNY     59  28  30 S12G24    29.85F
ST GEORGE      PTCLDY    70  23  17 W9        29.84F
HANKSVILLE     MOSUNNY   61  19  20 CALM      29.85F
BLANDING       PTSUNNY   59  15  17 SW9G22    29.94F

$$

REGIONAL REPORTS     COLORADO/ARIZONA

CITY           SKY/WX    TMP DP  RH WIND       PRES   REMARKS
CRAIG, CO      CLOUDY    42  36  79 CALM      29.83S
GRAND JUNCTION MOSUNNY   58  30  34 W10       29.83F
RIFLE, CO      CLOUDY    54  28  36 W18G29    29.81F
MONTROSE, CO   CLOUDY    52  26  36 VRB5      29.86F
CORTEZ, CO     CLOUDY    56  24  29 W16       29.89F
COLORADO CITY    N/A     66  28  24 W6G21     29.93F
PAGE, AZ       MOSUNNY   67  20  16 MISG      29.85F
GRAND CANYON   PTSUNNY   61  23  23 W17G25    29.97F
KINGMAN, AZ    MOSUNNY   78  26  14 SW15G25   29.89F
FLAGSTAFF, AZ  PTSUNNY   59  21  23 W10G25    29.98F

$$

REGIONAL REPORTS    NEVADA/IDAHO/WYOMING

CITY           SKY/WX    TMP DP  RH WIND       PRES   REMARKS
LAS VEGAS, NV  PTSUNNY   79  22  12 E8        29.79F
ELY, NY        PTSUNNY   56  30  37 SW20G26   29.87F
ELKO, NV       LGT RAIN  50  41  71 SW24G31   29.81F
POCATELLO, ID  CLOUDY    52  38  58 SW18      29.77F
BURLEY, ID     CLOUDY    51  37  58 SW12      29.76F
FORT BRIDGER,  CLOUDY    45  30  57 W23G29    29.85F
EVANSTON, WY   CLOUDY    45  31  58 SW22G31   29.83F
ROCK SPRINGS,  CLOUDY    46  30  53 W23G32    29.78F
KEMMERER, WY     N/A     41  30  65 W20G26    29.81F

$$




USA.gov is the U.S. government's official web portal to all federal, state and local government web resources and services.